Location: Vlissingen
(51.4500°N, 3.5830°E)
Time: 15:05:15
(UTC+01:00)

Envisat - Visible Passes

Search period start: 01 December 2021 00:00
Search period end: 11 December 2021 00:00
Orbit: 764 x 766 km, 98.2° (Epoch: 01 December)

Date Brightness Start Highest point End Pass type
(mag) Time Alt. Az. Time Alt. Az. Time Alt. Az.
01 Dec 4.8 05:04:35 10° NNE 05:09:04 30° E 05:13:31 10° SSE visible
01 Dec 3.2 06:43:25 10° N 06:48:15 45° WNW 06:53:05 10° SW visible
01 Dec 5.7 18:04:50 10° SW 18:08:37 21° W 18:12:25 10° NW visible
02 Dec 5.7 04:28:44 10° NE 04:31:47 16° E 04:34:48 10° ESE visible
02 Dec 2.9 06:06:22 10° NNE 06:11:30 87° WNW 06:16:35 10° SSW visible
02 Dec 4.4 07:46:36 10° NNW 07:49:50 17° NW 07:53:03 10° W visible
02 Dec 4.6 17:26:39 10° SSW 17:31:24 40° W 17:36:13 10° NNW visible
03 Dec 3.9 05:29:36 10° NNE 05:34:33 48° E 05:39:27 10° S visible
03 Dec 3.7 07:09:00 10° N 07:13:23 30° WNW 07:17:45 10° WSW visible
03 Dec 6.1 18:32:01 10° WSW 18:34:17 13° W 18:36:33 10° WNW visible
04 Dec 5.1 04:53:13 10° NE 04:57:24 25° E 05:01:33 10° SSE visible
04 Dec 3.0 06:31:47 10° N 06:36:45 55° WNW 06:41:42 10° SW visible
04 Dec 5.4 17:52:46 10° SSW 17:56:56 25° W 18:01:08 10° NW visible
05 Dec 5.9 04:17:51 10° ENE 04:20:03 13° E 04:22:15 10° ESE visible
05 Dec 3.1 05:54:49 10° NNE 05:59:56 78° ESE 06:05:01 10° S visible
05 Dec 4.2 07:34:45 10° N 07:38:25 20° WNW 07:42:04 10° WSW visible
05 Dec 4.1 17:14:53 10° S 17:19:47 49° W 17:24:44 10° NNW visible
06 Dec 4.3 05:18:08 10° NNE 05:22:56 39° E 05:27:41 10° SSE visible
06 Dec 3.5 06:57:18 10° N 07:01:55 36° WNW 07:06:31 10° SW visible
06 Dec 5.9 18:19:28 10° SW 18:22:33 16° W 18:25:39 10° NW visible
07 Dec 5.4 04:41:56 10° NE 04:45:43 21° E 04:49:28 10° SE visible
07 Dec 2.9 06:20:10 10° N 06:25:14 68° WNW 06:30:16 10° SSW visible
07 Dec 5.1 17:40:48 10° SSW 17:45:16 31° W 17:49:46 10° NNW visible
08 Dec 3.4 05:43:16 10° NNE 05:48:21 63° ESE 05:53:24 10° S visible
08 Dec 4.0 07:22:58 10° N 07:26:59 24° WNW 07:30:59 10° WSW visible
09 Dec 4.6 05:06:43 10° NNE 05:11:17 32° E 05:15:49 10° SSE visible
09 Dec 3.3 06:45:38 10° N 06:50:26 43° WNW 06:55:12 10° SW visible
09 Dec 5.8 18:07:11 10° SW 18:10:50 20° W 18:14:30 10° NW visible
10 Dec 5.6 04:30:46 10° NE 04:34:00 17° E 04:37:14 10° SE visible
10 Dec 2.9 06:08:34 10° NNE 06:13:41 82° WNW 06:18:46 10° SSW visible
10 Dec 4.4 07:48:53 10° NNW 07:51:58 16° NW 07:55:03 10° W visible
10 Dec 4.7 17:28:55 10° SSW 17:33:37 38° W 17:38:21 10° NNW visible
